Regional Weather Roundup
Issued by NWS Jackson, KY

Home | Current Version | Previous Version | Graphics & Text | Print | Product List | Glossary On
Versions: 1 2 3 4 5 6 7 8 9 10 11 12 13 14 15 16 17 18 19 20 21 22 23 24 25 26 27 28 29 30 31 32 33 34 35 36 37 38 39 40 41 42 43 44 45 46 47 48 49 50
000
ASUS43 KJKL 241010
RWRJKL

EAST KENTUCKY HOURLY WEATHER ROUNDUP
NATIONAL WEATHER SERVICE JACKSON KY
600 AM EDT THU APR 24 2014

NOTE: "FAIR" INDICATES FEW OR NO CLOUDS BELOW 12,000 FEET WITH
NO SIGNIFICANT WEATHER AND/OR OBSTRUCTIONS TO VISIBILITY.

* THESE REPORTS ARE NOT UNDER NWS QUALITY CONTROL AND MAY NOT
  REPORT WEATHER SUCH AS PRECIPITATION AND FOG.

KYZ079-080-083-085-087-088-110-112-115-119-120-241100
...EASTERN KENTUCKY...

CITY           SKY/WX    TMP DP  RH WIND       PRES   REMARKS
JACKSON        CLEAR     45  30  55 VRB3      30.05S
LONDON         CLOUDY    47  32  56 CALM      30.02F
SOMERSET*      PTCLDY    45  32  61 E3        30.03F
WILLIAMSBURG*  CLOUDY    41  37  87 CALM      30.03S
MIDDLESBORO*   CLEAR     36  35  94 CALM      30.05S
HARLAN APT*    SUNNY     37  32  81 CALM      30.04S
BLACK MTN*       N/A     48  21  34 SW2         N/A
PIKEVILLE APT* MOCLDY    45  32  61 NE5       30.06S
BIG SANDY*     PTSUNNY   43  33  69 NE5       30.07R
MOREHEAD APT*  CLOUDY    46  32  57 MISG      30.10R
$$

KYZ035-036-041-042-044-050-067-078-099-241100
...CENTRAL KENTUCKY...

CITY           SKY/WX    TMP DP  RH WIND       PRES   REMARKS
MT STERLING*   PTCLDY    46  34  61 E8        30.08R
FLEMING/MASON* MOCLDY    43  34  70 E7        30.11R
RICHMOND*      PTCLDY    45  34  65 E3        30.03S
LEXINGTON      MOCLDY    49  33  54 E10       30.04S
FRANKFORT      MOCLDY    47  35  63 E9        30.04S
$$

KYZ091>093-OHZ055-061-077-WVZ005-015-034-035-042-241100
...SOUTHERN OHIO/WEST VIRGINIA...

CITY           SKY/WX    TMP DP  RH WIND       PRES   REMARKS
COVINGTON      CLOUDY    49  34  56 E12       30.07R
COLUMBUS       MOCLDY    43  22  43 E5        30.12R
DAYTON         CLOUDY    46  28  49 E9        30.11R
WILMINGTON     PTCLDY    42  30  62 E6        30.09S
HUNTINGTON     MOCLDY    43  32  65 NE7       30.09R
CHARLESTON     MOCLDY    41  35  79 E6        30.09F
PINEVILLE*     PTCLDY    35  34  96 MISG      30.12F
BECKLEY        MOCLDY    37  29  72 E3        30.07R
BLUEFIELD      PTCLDY    42  27  55 CALM      30.07S
$$

VAZ002-007-008-TNZ017-027-036-066-071-241100
...SOUTHWEST VIRGINIA/EAST TENNESSEE...

CITY           SKY/WX    TMP DP  RH WIND       PRES   REMARKS
WISE*          CLEAR     43  28  56 CALM      30.05F
ABINGDON*      CLEAR     43  28  56 E7        30.05S
BRISTOL        PTCLDY    38  29  70 S3        30.05R
KNOXVILLE      CLEAR     45  34  65 N5        30.01R
OAK RIDGE      CLEAR     45  36  70 NE3       30.03S
CROSSVILLE     CLEAR     42  35  76 CALM      30.01S
NASHVILLE      CLEAR     44  37  76 CALM      29.99R
$$

...KEY TO REMARKS...
VSB - VISIBILITY IN MILES
WCI - WIND CHILL INDEX
HX  - HEAT INDEX

$$



USA.gov is the U.S. government's official web portal to all federal, state and local government web resources and services.